Regional Weather Roundup
Issued by NWS

Home | Current Version | Previous Version | Text Only | Print | Product List | Glossary Off
Versions: 1 2 3 4 5 6 7 8 9 10 11 12 13 14 15 16 17 18 19 20 21 22 23 24 25 26 27

000
ASUS45 KSLC 251210
RWRUT

UTAH REGIONAL WEATHER ROUNDUP
NATIONAL WEATHER SERVICE SALT LAKE CITY UT
600 AM MDT MON JUL 25 2016

UTZ001>011-023>025-251300-

NORTHERN UTAH

CITY           SKY/WX    TMP DP  RH WIND       PRES   REMARKS
BRIGHAM CITY     N/A     61  35  37 CALM      30.06S
HILL AFB       PTCLDY    67  30  25 E18G25    30.09R
LOGAN          CLEAR     55  42  61 CALM      30.12R
OGDEN          PTCLDY    67  31  26 S8        30.06R
PROVO AIRPORT  PTCLDY    63  41  45 CALM      30.10S
SALT LAKE CITY PTCLDY    77  38  24 SE8       30.05R
VERNAL         CLEAR     59  33  37 SW3       30.16R
WENDOVER       CLEAR     70  28  21 SW3       30.06R
HEBER CITY     PTCLDY    50  39  66 CALM      30.21R

$$

UTZ012>022-026-027-251300-

SOUTHERN/CENTRAL UTAH

CITY           SKY/WX    TMP DP  RH WIND       PRES   REMARKS
BLANDING       PTCLDY    65  44  46 NE7       30.31R
BRYCE CANYON   PTCLDY    46  40  79 W6        30.38R
CEDAR CITY     CLEAR     68  45  43 E3        30.19R
DELTA          PTCLDY    73  34  23 S12       30.09S
MILFORD        CLEAR     68  41  37 S12       30.12S
MOAB/CYNLANDS  MOCLDY    76  37  24 CALM      30.08R
PRICE          PTCLDY    65  20  17 S3        30.19R
ST GEORGE      MOSUNNY   82  46  28 E13       30.00R
KANAB          CLEAR     63  46  55 N3        30.20R

$$

REGIONAL REPORTS     COLORADO/ARIZONA

CITY           SKY/WX    TMP DP  RH WIND       PRES   REMARKS
CRAIG, CO      CLEAR     46  39  76 CALM      30.27R
GRAND JUNCTION CLEAR     68  42  38 SE10      30.14R
RIFLE          CLEAR     57  39  51 E3        30.23R
MONTROSE       MOCLDY    67  39  35 SE13      30.25R
CORTEZ         MOCLDY    60  47  61 CALM      30.25S
PAGE, AZ       CLEAR     75  44  33 S5        30.11R
GRAND CANYON   CLEAR     51  47  86 CALM      30.31S
KINGMAN        CLEAR     77  52  41 SE8       30.03S
FLAGSTAFF      CLEAR     54  47  77 CALM      30.33S

$$

REGIONAL REPORTS    NEVADA/IDAHO/WYOMING

CITY           SKY/WX    TMP DP  RH WIND       PRES   REMARKS
LAS VEGAS, NV  PTCLDY    91  32  12 S9        29.84R
ELY            CLEAR     47  19  33 SE9       30.22R
ELKO           CLEAR     56  27  32 E5        30.14R
POCATELLO, ID  CLEAR     49  34  56 NW3       30.12S
BURLEY         CLEAR     51  43  74 CALM      30.08R
EVANSTON, WY   MOCLDY    56  24  29 S6        30.31R
ROCK SPRINGS   PTCLDY    60  16  18 CALM      30.29R
KEMMERER         N/A     45  28  53 N13       30.33S

$$




USA.gov is the U.S. government's official web portal to all federal, state and local government web resources and services.